Time,TemperatureF,DewpointF,PressureIn,WindDirection,WindDirectionDegrees,WindSpeedMPH,WindSpeedGustMPH,Humidity,HourlyPrecipIn,Conditions,Clouds,dailyrainin,SoftwareType,DateUTC
2013-12-14 00:04:00,11.1,5.0,30.47,East,84,0.0,2.0,75,0.00,,,0.00,weatherlink.com 1.10,2013-12-14 05:04:00,
2013-12-14 00:18:00,10.5,4.0,30.47,ENE,62,1.0,2.0,74,0.00,,,0.00,weatherlink.com 1.10,2013-12-14 05:18:00,
2013-12-14 00:33:00,10.2,4.0,30.48,East,91,0.0,1.0,74,0.00,,,0.00,weatherlink.com 1.10,2013-12-14 05:33:00,
2013-12-14 00:47:00,10.0,2.0,30.49,East,84,1.0,1.0,71,0.00,,,0.00,weatherlink.com 1.10,2013-12-14 05:47:00,
2013-12-14 01:02:00,9.9,2.0,30.50,ESE,107,0.0,1.0,70,0.00,,,0.00,weatherlink.com 1.10,2013-12-14 06:02:00,
2013-12-14 01:16:00,9.6,2.0,30.50,East,100,0.0,1.0,70,0.00,,,0.00,weatherlink.com 1.10,2013-12-14 06:16:00,
2013-12-14 01:31:00,9.4,2.0,30.50,ENE,78,0.0,1.0,70,0.00,,,0.00,weatherlink.com 1.10,2013-12-14 06:31:00,
2013-12-14 01:45:00,9.2,2.0,30.50,East,96,0.0,1.0,71,0.00,,,0.00,weatherlink.com 1.10,2013-12-14 06:45:00,
2013-12-14 02:00:00,9.0,2.0,30.50,ENE,65,0.0,1.0,72,0.00,,,0.00,weatherlink.com 1.10,2013-12-14 07:00:00,
2013-12-14 02:14:00,8.8,2.0,30.51,East,86,0.0,0.0,72,0.00,,,0.00,weatherlink.com 1.10,2013-12-14 07:14:00,
2013-12-14 02:29:00,8.7,2.0,30.51,ESE,104,0.0,1.0,73,0.00,,,0.00,weatherlink.com 1.10,2013-12-14 07:29:00,
2013-12-14 02:43:00,8.7,2.0,30.52,ESE,116,0.0,1.0,73,0.00,,,0.00,weatherlink.com 1.10,2013-12-14 07:43:00,
2013-12-14 02:57:00,8.6,1.0,30.52,ENE,66,0.0,1.0,72,0.00,,,0.00,weatherlink.com 1.10,2013-12-14 07:57:00,
2013-12-14 03:12:00,8.6,1.0,30.51,East,89,0.0,1.0,72,0.00,,,0.00,weatherlink.com 1.10,2013-12-14 08:12:00,
2013-12-14 03:26:00,8.6,1.0,30.51,East,96,0.0,2.0,69,0.00,,,0.00,weatherlink.com 1.10,2013-12-14 08:26:00,
2013-12-14 03:41:00,8.4,0.0,30.52,ESE,104,0.0,2.0,68,0.00,,,0.00,weatherlink.com 1.10,2013-12-14 08:41:00,
2013-12-14 03:55:00,8.3,1.0,30.52,East,82,0.0,1.0,70,0.00,,,0.00,weatherlink.com 1.10,2013-12-14 08:55:00,
2013-12-14 04:10:00,8.1,0.0,30.52,ENE,64,0.0,1.0,68,0.00,,,0.00,weatherlink.com 1.10,2013-12-14 09:10:00,
2013-12-14 04:24:00,8.0,0.0,30.52,East,79,0.0,1.0,69,0.00,,,0.00,weatherlink.com 1.10,2013-12-14 09:24:00,
2013-12-14 04:39:00,7.8,0.0,30.52,ESE,105,0.0,2.0,69,0.00,,,0.00,weatherlink.com 1.10,2013-12-14 09:39:00,
2013-12-14 04:53:00,7.7,0.0,30.51,ENE,77,0.0,1.0,70,0.00,,,0.00,weatherlink.com 1.10,2013-12-14 09:53:00,
2013-12-14 05:08:00,7.7,0.0,30.51,East,98,0.0,1.0,71,0.00,,,0.00,weatherlink.com 1.10,2013-12-14 10:08:00,
2013-12-14 05:22:00,7.7,0.0,30.52,ESE,104,0.0,2.0,70,0.00,,,0.00,weatherlink.com 1.10,2013-12-14 10:22:00,
2013-12-14 05:36:00,7.7,1.0,30.52,East,85,1.0,1.0,72,0.00,,,0.00,weatherlink.com 1.10,2013-12-14 10:36:00,
2013-12-14 05:51:00,7.8,1.0,30.51,East,89,0.0,2.0,72,0.00,,,0.00,weatherlink.com 1.10,2013-12-14 10:51:00,
2013-12-14 06:05:00,7.8,1.0,30.52,ENE,72,0.0,1.0,73,0.00,,,0.00,weatherlink.com 1.10,2013-12-14 11:05:00,
2013-12-14 06:20:00,7.9,1.0,30.52,East,81,0.0,1.0,72,0.00,,,0.00,weatherlink.com 1.10,2013-12-14 11:20:00,
2013-12-14 06:34:00,7.8,1.0,30.52,NE,54,1.0,1.0,73,0.00,,,0.00,weatherlink.com 1.10,2013-12-14 11:34:00,
2013-12-14 06:48:00,8.0,1.0,30.52,ENE,72,0.0,1.0,74,0.00,,,0.00,weatherlink.com 1.10,2013-12-14 11:48:00,
2013-12-14 07:03:00,8.0,1.0,30.52,ENE,68,0.0,1.0,74,0.00,,,0.00,weatherlink.com 1.10,2013-12-14 12:03:00,
2013-12-14 07:18:00,8.0,1.0,30.53,East,79,0.0,1.0,73,0.00,,,0.00,weatherlink.com 1.10,2013-12-14 12:18:00,
2013-12-14 07:32:00,8.1,2.0,30.54,East,97,0.0,1.0,75,0.00,,,0.00,weatherlink.com 1.10,2013-12-14 12:32:00,
2013-12-14 07:46:00,8.3,2.0,30.54,ESE,122,0.0,1.0,76,0.00,,,0.00,weatherlink.com 1.10,2013-12-14 12:46:00,
2013-12-14 08:01:00,8.4,3.0,30.54,ENE,73,0.0,1.0,77,0.00,,,0.00,weatherlink.com 1.10,2013-12-14 13:01:00,
2013-12-14 08:15:00,8.4,2.0,30.54,ENE,71,0.0,1.0,76,0.00,,,0.00,weatherlink.com 1.10,2013-12-14 13:15:00,
2013-12-14 08:30:00,8.5,3.0,30.55,ENE,66,0.0,1.0,78,0.00,,,0.00,weatherlink.com 1.10,2013-12-14 13:30:00,
2013-12-14 08:44:00,9.0,4.0,30.56,East,87,0.0,1.0,78,0.00,,,0.00,weatherlink.com 1.10,2013-12-14 13:44:00,
2013-12-14 08:59:00,9.5,4.0,30.55,ENE,77,0.0,1.0,79,0.00,,,0.00,weatherlink.com 1.10,2013-12-14 13:59:00,
2013-12-14 09:13:00,9.6,4.0,30.55,ENE,72,0.0,1.0,78,0.00,,,0.00,weatherlink.com 1.10,2013-12-14 14:13:00,
2013-12-14 09:28:00,10.1,5.0,30.55,ENE,77,0.0,1.0,79,0.00,,,0.00,weatherlink.com 1.10,2013-12-14 14:28:00,
2013-12-14 09:42:00,10.7,5.0,30.54,ENE,71,1.0,2.0,79,0.00,,,0.00,weatherlink.com 1.10,2013-12-14 14:42:00,
2013-12-14 09:57:00,11.1,6.0,30.54,ENE,73,0.0,2.0,79,0.00,,,0.00,weatherlink.com 1.10,2013-12-14 14:57:00,
2013-12-14 10:11:00,11.6,6.0,30.54,East,97,0.0,1.0,77,0.00,,,0.00,weatherlink.com 1.10,2013-12-14 15:11:00,
2013-12-14 10:26:00,11.9,6.0,30.53,East,96,0.0,3.0,76,0.00,,,0.00,weatherlink.com 1.10,2013-12-14 15:26:00,
2013-12-14 10:40:00,12.1,7.0,30.52,East,96,0.0,4.0,78,0.00,,,0.00,weatherlink.com 1.10,2013-12-14 15:40:00,
2013-12-14 10:54:00,12.4,7.0,30.52,ENE,77,1.0,3.0,79,0.00,,,0.00,weatherlink.com 1.10,2013-12-14 15:54:00,
2013-12-14 11:09:00,13.3,8.0,30.50,East,100,2.0,3.0,80,0.00,,,0.00,weatherlink.com 1.10,2013-12-14 16:09:00,
2013-12-14 11:24:00,13.3,8.0,30.50,ESE,120,0.0,4.0,79,0.00,,,0.00,weatherlink.com 1.10,2013-12-14 16:24:00,
2013-12-14 11:38:00,13.7,9.0,30.49,East,96,3.0,4.0,80,0.00,,,0.00,weatherlink.com 1.10,2013-12-14 16:38:00,
2013-12-14 11:52:00,14.0,10.0,30.48,ENE,71,1.0,4.0,82,0.00,,,0.00,weatherlink.com 1.10,2013-12-14 16:52:00,
2013-12-14 12:07:00,14.4,10.0,30.46,East,80,1.0,4.0,82,0.00,,,0.00,weatherlink.com 1.10,2013-12-14 17:07:00,
2013-12-14 12:22:00,14.7,10.0,30.45,ENE,78,2.0,5.0,81,0.00,,,0.00,weatherlink.com 1.10,2013-12-14 17:22:00,
2013-12-14 12:36:00,14.8,11.0,30.44,East,86,3.0,6.0,83,0.00,,,0.00,weatherlink.com 1.10,2013-12-14 17:36:00,
2013-12-14 12:50:00,14.6,11.0,30.43,East,96,2.0,4.0,84,0.00,,,0.00,weatherlink.com 1.10,2013-12-14 17:50:00,
2013-12-14 13:05:00,14.5,11.0,30.41,ENE,74,2.0,5.0,84,0.00,,,0.00,weatherlink.com 1.10,2013-12-14 18:05:00,
2013-12-14 13:19:00,14.3,10.0,30.40,ENE,62,3.0,5.0,84,0.00,,,0.00,weatherlink.com 1.10,2013-12-14 18:19:00,
2013-12-14 13:34:00,14.1,10.0,30.39,ENE,68,0.0,5.0,84,0.00,,,0.00,weatherlink.com 1.10,2013-12-14 18:34:00,
2013-12-14 13:48:00,13.9,10.0,30.39,ENE,74,2.0,5.0,85,0.00,,,0.00,weatherlink.com 1.10,2013-12-14 18:48:00,
2013-12-14 14:03:00,13.5,10.0,30.38,ENE,76,2.0,6.0,86,0.00,,,0.00,weatherlink.com 1.10,2013-12-14 19:03:00,
2013-12-14 14:17:00,13.3,10.0,30.36,East,94,4.0,6.0,86,0.00,,,0.00,weatherlink.com 1.10,2013-12-14 19:17:00,
2013-12-14 14:32:00,13.0,10.0,30.35,ENE,71,4.0,4.0,86,0.00,,,0.00,weatherlink.com 1.10,2013-12-14 19:32:00,
2013-12-14 14:46:00,12.8,9.0,30.33,ENE,72,2.0,5.0,85,0.00,,,0.00,weatherlink.com 1.10,2013-12-14 19:46:00,
2013-12-14 15:01:00,12.6,9.0,30.32,East,100,3.0,8.0,86,0.00,,,0.00,weatherlink.com 1.10,2013-12-14 20:01:00,
2013-12-14 15:15:00,12.5,9.0,30.32,East,88,3.0,7.0,86,0.00,,,0.00,weatherlink.com 1.10,2013-12-14 20:15:00,
2013-12-14 15:30:00,12.4,9.0,30.31,East,79,2.0,9.0,86,0.00,,,0.00,weatherlink.com 1.10,2013-12-14 20:30:00,
2013-12-14 15:44:00,12.5,9.0,30.30,East,88,2.0,7.0,85,0.00,,,0.00,weatherlink.com 1.10,2013-12-14 20:44:00,
2013-12-14 15:58:00,12.4,9.0,30.29,ENE,77,3.0,6.0,86,0.00,,,0.00,weatherlink.com 1.10,2013-12-14 20:58:00,
2013-12-14 16:13:00,12.1,9.0,30.27,ESE,102,5.0,7.0,87,0.00,,,0.00,weatherlink.com 1.10,2013-12-14 21:13:00,
2013-12-14 16:28:00,12.0,9.0,30.25,East,94,2.0,7.0,88,0.00,,,0.00,weatherlink.com 1.10,2013-12-14 21:28:00,
2013-12-14 16:42:00,12.0,9.0,30.25,East,94,1.0,6.0,89,0.00,,,0.00,weatherlink.com 1.10,2013-12-14 21:42:00,
2013-12-14 16:56:00,12.1,9.0,30.23,East,87,3.0,5.0,89,0.00,,,0.00,weatherlink.com 1.10,2013-12-14 21:56:00,
2013-12-14 17:11:00,12.2,10.0,30.23,East,94,2.0,6.0,89,0.00,,,0.00,weatherlink.com 1.10,2013-12-14 22:11:00,
2013-12-14 17:25:00,12.3,10.0,30.21,East,98,4.0,8.0,89,0.00,,,0.00,weatherlink.com 1.10,2013-12-14 22:25:00,
2013-12-14 17:40:00,12.3,10.0,30.20,ESE,110,4.0,9.0,90,0.00,,,0.00,weatherlink.com 1.10,2013-12-14 22:40:00,
2013-12-14 17:54:00,12.5,10.0,30.20,East,99,2.0,7.0,89,0.00,,,0.00,weatherlink.com 1.10,2013-12-14 22:54:00,
2013-12-14 18:09:00,12.7,10.0,30.19,ENE,70,1.0,11.0,89,0.00,,,0.00,weatherlink.com 1.10,2013-12-14 23:09:00,
2013-12-14 18:23:00,12.9,10.0,30.18,East,89,3.0,6.0,89,0.00,,,0.00,weatherlink.com 1.10,2013-12-14 23:23:00,
2013-12-14 18:38:00,12.8,10.0,30.17,East,95,4.0,7.0,90,0.00,,,0.00,weatherlink.com 1.10,2013-12-14 23:38:00,
2013-12-14 18:52:00,12.9,11.0,30.16,ENE,68,2.0,6.0,90,0.00,,,0.00,weatherlink.com 1.10,2013-12-14 23:52:00,
2013-12-14 19:07:00,13.1,10.0,30.16,East,85,2.0,7.0,89,0.00,,,0.00,weatherlink.com 1.10,2013-12-15 00:07:00,
2013-12-14 19:21:00,13.1,10.0,30.16,ENE,70,2.0,5.0,89,0.00,,,0.00,weatherlink.com 1.10,2013-12-15 00:21:00,
2013-12-14 19:35:00,13.1,11.0,30.15,East,101,3.0,5.0,90,0.00,,,0.00,weatherlink.com 1.10,2013-12-15 00:35:00,
2013-12-14 19:50:00,13.1,11.0,30.15,ENE,70,3.0,5.0,90,0.00,,,0.00,weatherlink.com 1.10,2013-12-15 00:50:00,
2013-12-14 20:05:00,13.0,11.0,30.14,East,82,3.0,8.0,90,0.00,,,0.00,weatherlink.com 1.10,2013-12-15 01:05:00,
2013-12-14 20:19:00,13.0,11.0,30.13,ENE,72,2.0,6.0,90,0.00,,,0.00,weatherlink.com 1.10,2013-12-15 01:19:00,
2013-12-14 20:33:00,12.9,11.0,30.11,East,82,3.0,5.0,91,0.00,,,0.00,weatherlink.com 1.10,2013-12-15 01:33:00,
2013-12-14 20:48:00,13.0,11.0,30.10,East,82,2.0,6.0,91,0.00,,,0.00,weatherlink.com 1.10,2013-12-15 01:48:00,
2013-12-14 21:02:00,12.9,11.0,30.08,East,82,3.0,6.0,91,0.00,,,0.00,weatherlink.com 1.10,2013-12-15 02:02:00,
2013-12-14 21:17:00,12.8,10.0,30.07,ENE,76,2.0,11.0,90,0.00,,,0.00,weatherlink.com 1.10,2013-12-15 02:17:00,
2013-12-14 21:31:00,12.8,11.0,30.06,East,99,2.0,8.0,91,0.00,,,0.00,weatherlink.com 1.10,2013-12-15 02:31:00,
2013-12-14 21:45:00,12.9,11.0,30.05,ENE,75,3.0,8.0,91,0.00,,,0.00,weatherlink.com 1.10,2013-12-15 02:45:00,
2013-12-14 22:00:00,12.9,11.0,30.03,East,98,2.0,6.0,91,0.00,,,0.00,weatherlink.com 1.10,2013-12-15 03:00:00,
2013-12-14 22:15:00,12.9,11.0,30.01,East,96,5.0,5.0,90,0.00,,,0.00,weatherlink.com 1.10,2013-12-15 03:15:00,
2013-12-14 22:29:00,13.1,11.0,30.00,East,88,2.0,6.0,90,0.00,,,0.00,weatherlink.com 1.10,2013-12-15 03:29:00,
2013-12-14 22:43:00,13.3,11.0,29.98,East,96,3.0,7.0,90,0.00,,,0.00,weatherlink.com 1.10,2013-12-15 03:43:00,
2013-12-14 22:58:00,13.4,11.0,29.98,ESE,104,5.0,8.0,90,0.00,,,0.00,weatherlink.com 1.10,2013-12-15 03:58:00,
2013-12-14 23:12:00,13.6,11.0,29.95,East,86,4.0,6.0,90,0.00,,,0.00,weatherlink.com 1.10,2013-12-15 04:12:00,
2013-12-14 23:27:00,13.8,11.0,29.94,East,86,3.0,6.0,90,0.00,,,0.00,weatherlink.com 1.10,2013-12-15 04:27:00,
2013-12-14 23:41:00,14.1,12.0,29.93,ENE,77,2.0,6.0,90,0.00,,,0.00,weatherlink.com 1.10,2013-12-15 04:41:00,
2013-12-14 23:55:00,14.6,12.0,29.90,East,95,2.0,6.0,90,0.00,,,0.00,weatherlink.com 1.10,2013-12-15 04:55:00,